AirNav   Everest Fuels
 
 535 users online  

CYAM Sault Ste Marie Airport
Sault Ste Marie, Ontario, Canada

GOING TO SAULT STE MARIE?


FAA INFORMATION EFFECTIVE 31 JANUARY 2019

The information below comes from the U.S. Federal Avaition Administration (FAA). The FAA is not the official source of data for facilities located outside the United States, and THESE RECORDS ARE LIKELY NOT COMPLETE OR CORRECT.

Location

FAA Identifier: CYAM
Lat/Long: 46-29-06.0000N / 084-30-34.0000W
46-29.100000N / 084-30.566667W
46.4850000 / -84.5094444
(estimated)
Elevation: 630 ft. / 192 m (estimated)
Variation: 07W ()
From city: 8 miles WSW of SAULT STE MARIE,
Time zone: UTC -5 (UTC -4 during Daylight Saving Time)
Zip code: 49710

Airport Operations

Airport use: Open to the public
Activation date: 03/2005
Control tower: no
ARTCC: TORONTO CENTER
FSS: LONDON FIC FLIGHT SERVICE STATION
Attendance: 
Segmented circle: no

Airport Communications

WX ASOS at ANJ (6 nm E): 118.375 (906-632-8501)
WX AWOS-3PT at CIU (14 nm S): 127.575 (906-495-7134)

Nearby radio navigation aids

VOR radial/distance  VOR name  Freq  Var
SSMr303/9.2SAULT STE MARIE VOR/DME112.2004W

 
NDB name  Hdg/Dist  Freq  Var  ID
KOLOE015/9.340007WCI -.-. ..

Airport Services

Runway Information

Runway 4/22

Dimensions: 6000 x 200 ft. / 1829 x 61 m
Surface: asphalt
RUNWAY 4  RUNWAY 22
Traffic pattern: leftleft

Runway 12/30

Dimensions: 6000 x 200 ft. / 1829 x 61 m
Surface: asphalt
RUNWAY 12  RUNWAY 30
Traffic pattern: leftleft

Airport Ownership and Management from official FAA records

Ownership: Publicly-owned

Instrument Procedures

There are no published instrument procedures at CYAM.

Some nearby airports with instrument procedures:

KANJ - Sault Ste Marie Municipal Airport/Sanderson Field (6 nm E)
KCIU - Chippewa County International Airport (14 nm S)
83D - Mackinac County Airport (37 nm S)
KMCD - Mackinac Island Airport (38 nm S)
KERY - Luce County Airport (41 nm W)
 
Loc | Ops | Rwys | IFR | FBO | Links
Com | Nav | Svcs | Stats | Notes
Aerial photo
No photo
 
Airport distance calculator
Flying to Sault Ste Marie Airport? Find the distance to fly.

From to CYAM

Sunrise and sunset
Times for 21-Feb-2019
 Local
(UTC-5)
 Zulu
(UTC)
Morning civil twilight07:0212:02
Sunrise07:3312:33
Sunset18:1123:11
Evening civil twilight18:4123:41

Current date and time
Zulu (UTC)  21-Feb-2019 05:41:03
Local (UTC-5)  21-Feb-2019 00:41:03
 
METAR
CYAM 210500Z 09008KT 1 1/4SM -SHSN BLSN SCT009 BKN016 OVC029 M06/M08 A2961 RMK SN3CF1SC3SC1 CIG VRB 12-20 CVCTV CLD EMBD SLP041
KANJ 
6nm E 
210516Z AUTO 13005KT 2SM -SN BR SCT015 OVC022 M05/M07 A2960 RMK AO2 SNB01 P0001 T10501072
KCIU 
14nm S 
210524Z AUTO 12008KT 3SM -SN BR SCT014 BKN019 OVC027 M06/M08 A2960 RMK AO2 P0000 FZRANO
TAF
CYAM 210140Z 2102/2114 09010G20KT 3/4SM -SN BLSN BKN002 OVC005 TEMPO 2102/2103 11/2SM -SN SCT003 OVC007 FM210300 09010KT 11/2SM -SN BKN007 OVC010 TEMPO 2103/2105 3SM -SN SCT008 OVC012 FM210500 09008KT 4SM -SN BKN008 OVC012 TEMPO 2105/2108 P6SM -SN SCT009 OVC015 PROB30 2105/2108 2SM -FZDZ BR FM210800 VRB03KT 5SM -SN BKN015 OVC030 TEMPO 2108/2112 P6SM NSW SCT020 BKN040 BECMG 2108/2110 26008KT FM211200 26010KT P6SM -SN BKN020 TEMPO 2112/2114 P6SM NSW BKN025 RMK NXT FCST BY 210800Z
NOTAMs
Click for the latest NOTAMs
NOTAMs are issued by the DoD/FAA and will open in a separate window not controlled by AirNav.

 

 
 

Would you like to see your business listed on this page?

 If your business provides an interesting product or service to pilots, flight crews, aircraft, or users of the Sault Ste Marie Airport, you should consider listing it here.  To start the listing process, click on the button below
 
Add a business
 

Other Pages about Sault Ste Marie Airport

Update a link
 
Copyright © AirNav, LLC. All rights reserved. Privacy Policy  Contact